Location: Canet
(43.3261°N, 5.3723°E)
Time: 18:36:46
(UTC+00:00)

Cosmos 2026 Rocket - Pass Details

Date: 24 January 2021
Orbit: 940 x 1000 km, 82.9° (Epoch: 02 March)

Event Time Altitude Azimuth Distance (km) Brightness Sun altitude
Rises 17:35:44 0° 161° (SSE) 3,603 7.0 -10.3°
Reaches altitude 10° 17:38:22 10° 153° (SSE) 2,669 6.2 -10.8°
Maximum altitude 17:43:54 38° 88° (E) 1,435 4.4 -11.7°
Drops below altitude 10° 17:49:33 10° 23° (NNE) 2,722 6.0 -12.7°
Sets 17:52:14 0° 16° (NNE) 3,683 6.7 -13.2°
